"read_dt","SO2 (ppb)","flags","PMT voltage (V)","lamp voltage (V)","lamp intensity (Hz)","internal temp (C)","react chamber temp (C)","sample flow (l/min)","pres (mmHg)","SO2 bkg (ppb)","SO2 coefficient"
2015-08-13 00:00:00,1682E-3,5C000000,-0724,0821,12174,027.1,045.4,0.476,731.6,01.19,0.508
2015-08-13 00:01:00,1620E-3,5C000000,-0724,0821,12210,027.1,045.4,0.476,731.5,01.19,0.508
2015-08-13 00:02:00,1622E-3,5C000000,-0724,0821,12257,027.1,045.4,0.476,731.6,01.19,0.508
2015-08-13 00:03:00,1466E-3,5C000000,-0724,0821,12257,027.1,045.4,0.476,731.6,01.19,0.508
2015-08-13 00:04:00,1527E-3,5C000000,-0724,0821,12338,027.1,045.4,0.476,731.6,01.19,0.508
2015-08-13 00:05:00,1633E-3,5C000000,-0724,0820,12209,027.1,045.4,0.476,731.6,01.19,0.508
2015-08-13 00:06:00,1633E-3,5C000000,-0724,0820,12124,027.1,045.5,0.476,731.6,01.19,0.508
2015-08-13 00:07:00,1731E-3,5C000000,-0724,0821,12244,027.1,045.4,0.476,731.5,01.19,0.508
2015-08-13 00:08:00,1711E-3,5C000000,-0724,0821,12222,027.1,045.4,0.476,731.5,01.19,0.508
2015-08-13 00:09:00,1591E-3,5C000000,-0724,0821,12359,027.1,045.4,0.476,731.6,01.19,0.508
2015-08-13 00:10:00,1674E-3,5C000000,-0724,0821,12168,027.1,045.4,0.476,731.5,01.19,0.508
2015-08-13 00:11:00,1647E-3,5C000000,-0724,0821,12237,027.1,045.4,0.476,731.5,01.19,0.508
2015-08-13 00:12:00,1853E-3,5C000000,-0724,0821,12221,027.1,045.4,0.476,731.6,01.19,0.508
2015-08-13 00:13:00,1589E-3,5C000000,-0724,0821,12301,027.1,045.4,0.476,731.6,01.19,0.508
2015-08-13 00:14:00,1685E-3,5C000000,-0724,0821,12297,027.1,045.4,0.476,731.5,01.19,0.508
2015-08-13 00:15:00,1585E-3,5C000000,-0724,0821,12211,027.1,045.4,0.476,731.5,01.19,0.508
2015-08-13 00:16:00,1738E-3,5C000000,-0724,0821,12238,027.1,045.4,0.476,731.5,01.19,0.508
2015-08-13 00:17:00,1728E-3,5C000000,-0724,0821,12313,027.1,045.4,0.476,731.6,01.19,0.508
2015-08-13 00:18:00,1687E-3,5C000000,-0724,0821,12263,027.1,045.4,0.476,731.5,01.19,0.508
2015-08-13 00:19:00,1579E-3,5C000000,-0724,0822,12250,027.1,045.4,0.476,731.5,01.19,0.508
2015-08-13 00:20:00,1570E-3,5C000000,-0724,0820,12271,027.1,045.4,0.476,731.6,01.19,0.508
2015-08-13 00:21:00,1599E-3,5C000000,-0724,0821,12273,027.1,045.4,0.476,731.6,01.19,0.508
2015-08-13 00:22:00,1711E-3,5C000000,-0724,0821,12210,027.1,045.4,0.476,731.5,01.19,0.508
2015-08-13 00:23:00,1641E-3,5C000000,-0724,0821,12322,027.1,045.4,0.476,731.5,01.19,0.508
2015-08-13 00:24:00,1680E-3,5C000000,-0724,0821,12218,027.1,045.5,0.476,731.5,01.19,0.508
2015-08-13 00:25:00,1617E-3,5C000000,-0724,0821,12207,027.1,045.4,0.475,731.5,01.19,0.508
2015-08-13 00:26:00,1618E-3,5C000000,-0724,0821,12193,027.1,045.4,0.476,731.5,01.19,0.508
2015-08-13 00:27:00,1636E-3,5C000000,-0724,0821,12325,027.1,045.4,0.476,731.6,01.19,0.508
2015-08-13 00:28:00,1604E-3,5C000000,-0724,0822,12258,027.1,045.4,0.476,731.5,01.19,0.508
2015-08-13 00:29:00,1659E-3,5C000000,-0724,0821,12228,027.1,045.4,0.476,731.6,01.19,0.508
2015-08-13 00:30:00,1568E-3,5C000000,-0724,0821,12384,027.1,045.4,0.476,731.6,01.19,0.508
2015-08-13 00:31:00,1451E-3,5C000000,-0724,0820,12162,027.1,045.4,0.476,731.5,01.19,0.508
2015-08-13 00:32:00,1725E-3,5C000000,-0724,0820,12240,027.1,045.4,0.476,731.6,01.19,0.508
2015-08-13 00:33:00,1801E-3,5C000000,-0724,0821,12297,027.1,045.4,0.476,731.5,01.19,0.508
2015-08-13 00:34:00,1627E-3,5C000000,-0724,0821,12084,027.1,045.4,0.476,731.6,01.19,0.508
2015-08-13 00:35:00,1711E-3,5C000000,-0724,0821,12245,027.1,045.4,0.476,731.6,01.19,0.508
2015-08-13 00:36:00,1576E-3,5C000000,-0724,0821,12307,027.1,045.4,0.476,731.6,01.19,0.508
2015-08-13 00:37:00,1735E-3,5C000000,-0724,0821,12392,027.1,045.4,0.476,731.6,01.19,0.508
2015-08-13 00:38:00,1651E-3,5C000000,-0724,0821,12304,027.1,045.4,0.476,731.6,01.19,0.508
2015-08-13 00:39:00,1614E-3,5C000000,-0724,0820,12243,027.1,045.4,0.476,731.6,01.19,0.508
2015-08-13 00:40:00,1694E-3,5C000000,-0724,0821,12295,027.1,045.5,0.475,731.6,01.19,0.508
2015-08-13 00:41:00,1606E-3,5C000000,-0724,0821,12269,027.1,045.4,0.476,731.6,01.19,0.508
2015-08-13 00:42:00,1704E-3,5C000000,-0724,0821,12244,027.1,045.4,0.475,731.6,01.19,0.508
2015-08-13 00:43:00,1687E-3,5C000000,-0724,0821,12284,027.1,045.4,0.476,731.6,01.19,0.508
2015-08-13 00:44:00,1745E-3,5C000000,-0724,0821,12244,027.1,045.4,0.475,731.6,01.19,0.508
2015-08-13 00:45:00,1544E-3,5C000000,-0724,0821,12280,027.1,045.5,0.476,731.6,01.19,0.508
2015-08-13 00:46:00,1715E-3,5C000000,-0724,0822,12338,027.1,045.4,0.475,731.6,01.19,0.508
2015-08-13 00:47:00,1478E-3,5C000000,-0724,0821,12300,027.1,045.4,0.476,731.6,01.19,0.508
2015-08-13 00:48:00,1588E-3,5C000000,-0724,0822,12473,027.1,045.4,0.476,731.6,01.19,0.508
2015-08-13 00:49:00,1675E-3,5C000000,-0724,0821,12355,027.1,045.4,0.476,731.6,01.19,0.508
2015-08-13 00:50:00,1789E-3,5C000000,-0724,0822,12187,027.1,045.5,0.476,731.6,01.19,0.508
2015-08-13 00:51:00,1672E-3,5C000000,-0724,0821,12280,027.1,045.4,0.476,731.6,01.19,0.508
2015-08-13 00:52:00,1699E-3,5C000000,-0724,0820,12268,027.1,045.4,0.476,731.6,01.19,0.508
2015-08-13 00:53:00,1611E-3,5C000000,-0724,0821,12260,027.1,045.4,0.476,731.6,01.19,0.508
2015-08-13 00:54:00,1636E-3,5C000000,-0724,0821,12328,027.1,045.4,0.476,731.6,01.19,0.508
2015-08-13 00:55:00,1600E-3,5C000000,-0724,0822,12348,027.1,045.5,0.476,731.6,01.19,0.508
2015-08-13 00:56:00,1742E-3,5C000000,-0724,0821,12164,027.1,045.4,0.476,731.6,01.19,0.508
2015-08-13 00:57:00,1547E-3,5C000000,-0724,0821,12186,027.1,045.4,0.476,731.6,01.19,0.508
2015-08-13 00:58:00,1601E-3,5C000000,-0724,0820,12194,027.1,045.4,0.476,731.6,01.19,0.508
2015-08-13 00:59:00,1681E-3,5C000000,-0724,0820,12314,027.1,045.4,0.476,731.7,01.19,0.508
2015-08-13 01:00:00,1668E-3,5C000000,-0724,0821,12299,027.1,045.4,0.476,731.7,01.19,0.508
2015-08-13 01:01:00,1619E-3,5C000000,-0724,0821,12313,027.1,045.5,0.476,731.7,01.19,0.508
2015-08-13 01:02:00,1622E-3,5C000000,-0724,0821,12393,027.1,045.4,0.476,731.7,01.19,0.508
2015-08-13 01:03:00,1601E-3,5C000000,-0724,0821,12277,027.1,045.4,0.476,731.7,01.19,0.508
2015-08-13 01:04:00,1713E-3,5C000000,-0724,0821,12321,027.1,045.4,0.476,731.6,01.19,0.508
2015-08-13 01:05:00,1641E-3,5C000000,-0724,0820,12266,027.1,045.4,0.476,731.7,01.19,0.508
2015-08-13 01:06:00,1654E-3,5C000000,-0724,0821,12369,027.1,045.4,0.476,731.7,01.19,0.508
2015-08-13 01:07:00,1676E-3,5C000000,-0724,0821,12339,027.1,045.4,0.476,731.7,01.19,0.508
2015-08-13 01:08:00,1546E-3,5C000000,-0724,0821,12203,027.1,045.4,0.476,731.7,01.19,0.508
2015-08-13 01:09:00,1567E-3,5C000000,-0724,0820,12146,027.1,045.4,0.476,731.7,01.19,0.508
2015-08-13 01:10:00,1685E-3,5C000000,-0724,0821,12312,027.1,045.4,0.476,731.7,01.19,0.508
2015-08-13 01:11:00,1632E-3,5C000000,-0724,0821,12291,027.1,045.4,0.476,731.7,01.19,0.508
2015-08-13 01:12:00,1701E-3,5C000000,-0724,0820,12229,027.1,045.4,0.476,731.7,01.19,0.508
2015-08-13 01:13:00,1566E-3,5C000000,-0724,0820,12256,027.1,045.5,0.476,731.7,01.19,0.508
2015-08-13 01:14:00,1670E-3,5C000000,-0724,0821,12203,027.1,045.4,0.476,731.7,01.19,0.508
2015-08-13 01:15:00,1562E-3,5C000000,-0724,0821,12256,027.1,045.4,0.476,731.7,01.19,0.508
2015-08-13 01:16:00,1687E-3,5C000000,-0724,0821,12249,027.1,045.4,0.476,731.7,01.19,0.508
2015-08-13 01:17:00,1659E-3,5C000000,-0724,0821,12305,027.1,045.4,0.476,731.7,01.19,0.508
2015-08-13 01:18:00,1650E-3,5C000000,-0724,0821,12317,027.0,045.4,0.476,731.7,01.19,0.508
2015-08-13 01:19:00,1561E-3,5C000000,-0724,0821,12353,027.0,045.4,0.476,731.7,01.19,0.508
2015-08-13 01:20:00,1562E-3,5C000000,-0724,0821,12416,027.0,045.4,0.476,731.7,01.19,0.508
2015-08-13 01:21:00,1571E-3,5C000000,-0724,0821,12331,026.9,045.4,0.476,731.7,01.19,0.508
2015-08-13 01:22:00,1584E-3,5C000000,-0724,0821,12289,026.9,045.4,0.476,731.7,01.19,0.508
2015-08-13 01:23:00,1704E-3,5C000000,-0724,0821,12265,026.9,045.4,0.476,731.7,01.19,0.508
2015-08-13 01:24:00,1680E-3,5C000000,-0724,0822,12340,026.8,045.4,0.476,731.7,01.19,0.508
2015-08-13 01:25:00,1580E-3,5C000000,-0724,0821,12196,026.7,045.4,0.476,731.7,01.19,0.508
2015-08-13 01:26:00,1656E-3,5C000000,-0724,0822,12238,026.7,045.4,0.477,731.7,01.19,0.508
2015-08-13 01:27:00,1617E-3,5C000000,-0724,0820,12230,026.7,045.4,0.476,731.7,01.19,0.508
2015-08-13 01:28:00,1750E-3,5C000000,-0724,0821,12174,026.7,045.4,0.477,731.7,01.19,0.508
2015-08-13 01:29:00,1547E-3,5C000000,-0724,0821,12271,026.6,045.4,0.476,731.7,01.19,0.508
2015-08-13 01:30:00,1701E-3,5C000000,-0724,0821,12341,026.6,045.4,0.477,731.8,01.19,0.508
2015-08-13 01:31:00,1742E-3,5C000000,-0724,0821,12255,026.5,045.4,0.477,731.8,01.19,0.508
2015-08-13 01:32:00,1576E-3,5C000000,-0724,0821,12227,026.5,045.4,0.477,731.8,01.19,0.508
2015-08-13 01:33:00,1514E-3,5C000000,-0724,0821,12214,026.5,045.4,0.477,731.8,01.19,0.508
2015-08-13 01:34:00,1747E-3,5C000000,-0724,0821,12211,026.4,045.4,0.477,731.8,01.19,0.508
2015-08-13 01:35:00,1683E-3,5C000000,-0724,0821,12296,026.4,045.4,0.477,731.8,01.19,0.508
2015-08-13 01:36:00,1561E-3,5C000000,-0724,0821,12294,026.3,045.4,0.477,731.8,01.19,0.508
2015-08-13 01:37:00,1615E-3,5C000000,-0724,0821,12243,026.3,045.4,0.477,731.8,01.19,0.508
2015-08-13 01:38:00,1568E-3,5C000000,-0724,0821,12209,026.3,045.5,0.477,731.8,01.19,0.508
2015-08-13 01:39:00,1580E-3,5C000000,-0724,0821,12265,026.2,045.4,0.477,731.8,01.19,0.508
2015-08-13 01:40:00,1635E-3,5C000000,-0724,0821,12190,026.2,045.4,0.477,731.8,01.19,0.508
2015-08-13 01:41:00,1736E-3,5C000000,-0724,0820,12410,026.2,045.4,0.477,731.8,01.19,0.508
2015-08-13 01:42:00,1533E-3,5C000000,-0724,0820,12238,026.2,045.4,0.477,731.8,01.19,0.508
2015-08-13 01:43:00,1570E-3,5C000000,-0724,0821,12252,026.1,045.4,0.477,731.8,01.19,0.508
2015-08-13 01:44:00,1552E-3,5C000000,-0724,0820,12312,026.1,045.4,0.478,731.8,01.19,0.508
2015-08-13 01:45:00,1623E-3,5C000000,-0724,0821,12341,026.0,045.4,0.477,731.8,01.19,0.508
2015-08-13 01:46:00,1721E-3,5C000000,-0724,0820,12279,026.0,045.4,0.478,731.8,01.19,0.508
2015-08-13 01:47:00,1608E-3,5C000000,-0724,0820,12371,026.0,045.4,0.477,731.8,01.19,0.508
2015-08-13 01:48:00,1657E-3,5C000000,-0724,0820,12305,026.0,045.4,0.477,731.8,01.19,0.508
2015-08-13 01:49:00,1640E-3,5C000000,-0724,0820,12275,026.0,045.4,0.477,731.8,01.19,0.508
2015-08-13 01:50:00,1662E-3,5C000000,-0724,0820,12308,026.0,045.4,0.477,731.8,01.19,0.508
2015-08-13 01:51:00,1522E-3,5C000000,-0724,0820,12280,026.0,045.4,0.478,731.9,01.19,0.508
2015-08-13 01:52:00,1756E-3,5C000000,-0724,0821,12374,026.0,045.4,0.477,731.9,01.19,0.508
2015-08-13 01:53:00,1650E-3,5C000000,-0724,0820,12248,026.0,045.4,0.477,731.9,01.19,0.508
2015-08-13 01:54:00,1686E-3,5C000000,-0724,0821,12219,026.1,045.4,0.477,731.8,01.19,0.508
2015-08-13 01:55:00,1617E-3,5C000000,-0724,0821,12188,026.1,045.4,0.477,731.9,01.19,0.508
2015-08-13 01:56:00,1690E-3,5C000000,-0724,0821,12368,026.1,045.4,0.478,731.8,01.19,0.508
2015-08-13 01:57:00,1699E-3,5C000000,-0724,0821,12289,026.1,045.4,0.477,731.9,01.19,0.508
2015-08-13 01:58:00,1716E-3,5C000000,-0724,0820,12173,026.1,045.4,0.478,731.8,01.19,0.508
2015-08-13 01:59:00,1595E-3,5C000000,-0724,0820,12343,026.1,045.4,0.477,731.9,01.19,0.508
2015-08-13 02:00:00,1620E-3,5C000000,-0724,0821,12329,026.1,045.4,0.477,731.9,01.19,0.508
2015-08-13 02:01:00,1641E-3,5C000000,-0724,0821,12306,026.1,045.4,0.477,731.9,01.19,0.508
2015-08-13 02:02:00,1565E-3,5C000000,-0724,0821,12257,026.2,045.4,0.477,731.9,01.19,0.508
2015-08-13 02:03:00,1559E-3,5C000000,-0724,0821,12272,026.2,045.4,0.477,731.9,01.19,0.508
2015-08-13 02:04:00,1533E-3,5C000000,-0724,0822,12282,026.2,045.4,0.477,731.9,01.19,0.508
2015-08-13 02:05:00,1612E-3,5C000000,-0724,0821,12414,026.2,045.4,0.477,731.9,01.19,0.508
2015-08-13 02:06:00,1583E-3,5C000000,-0724,0822,12171,026.2,045.4,0.477,731.9,01.19,0.508
2015-08-13 02:07:00,1748E-3,5C000000,-0724,0821,12365,026.2,045.4,0.477,731.9,01.19,0.508
2015-08-13 02:08:00,1752E-3,5C000000,-0724,0820,12270,026.3,045.4,0.477,731.9,01.19,0.508
2015-08-13 02:09:00,1603E-3,5C000000,-0724,0821,12168,026.3,045.4,0.477,731.9,01.19,0.508
2015-08-13 02:10:00,1607E-3,5C000000,-0724,0821,12125,026.3,045.4,0.477,731.9,01.19,0.508
2015-08-13 02:11:00,1465E-3,5C000000,-0724,0821,12111,026.3,045.4,0.477,731.8,01.19,0.508
2015-08-13 02:12:00,1610E-3,5C000000,-0724,0821,12154,026.3,045.4,0.477,731.8,01.19,0.508
2015-08-13 02:13:00,1693E-3,5C000000,-0724,0821,12431,026.3,045.4,0.477,731.8,01.19,0.508
2015-08-13 02:14:00,1681E-3,5C000000,-0724,0821,12196,026.3,045.4,0.477,731.9,01.19,0.508
2015-08-13 02:15:00,1679E-3,5C000000,-0724,0821,12133,026.4,045.4,0.477,731.9,01.19,0.508
2015-08-13 02:16:00,1601E-3,5C000000,-0724,0821,12328,026.4,045.4,0.477,731.9,01.19,0.508
2015-08-13 02:17:00,1678E-3,5C000000,-0724,0821,12128,026.4,045.4,0.477,731.9,01.19,0.508
2015-08-13 02:18:00,1627E-3,5C000000,-0724,0821,12365,026.4,045.4,0.477,731.9,01.19,0.508
2015-08-13 02:19:00,1556E-3,5C000000,-0724,0821,12328,026.4,045.4,0.477,731.9,01.19,0.508
2015-08-13 02:20:00,1798E-3,5C000000,-0724,0821,12214,026.4,045.4,0.477,731.9,01.19,0.508
2015-08-13 02:21:00,1659E-3,5C000000,-0724,0821,12305,026.4,045.4,0.477,731.9,01.19,0.508
2015-08-13 02:22:00,1672E-3,5C000000,-0724,0821,12279,026.4,045.4,0.477,731.9,01.19,0.508
2015-08-13 02:23:00,1611E-3,5C000000,-0724,0821,12290,026.4,045.4,0.477,731.9,01.19,0.508
2015-08-13 02:24:00,1666E-3,5C000000,-0724,0820,12267,026.4,045.4,0.477,731.9,01.19,0.508
2015-08-13 02:25:00,1639E-3,5C000000,-0724,0821,12294,026.5,045.4,0.477,731.9,01.19,0.508
2015-08-13 02:26:00,1529E-3,5C000000,-0724,0820,12196,026.5,045.4,0.477,731.9,01.19,0.508
2015-08-13 02:27:00,1462E-3,5C000000,-0724,0821,12255,026.5,045.4,0.477,731.9,01.19,0.508
2015-08-13 02:28:00,1729E-3,5C000000,-0724,0821,12273,026.4,045.4,0.477,731.9,01.19,0.508
2015-08-13 02:29:00,1730E-3,5C000000,-0724,0821,12124,026.5,045.4,0.477,731.9,01.19,0.508
2015-08-13 02:30:00,1681E-3,5C000000,-0724,0820,12268,026.5,045.4,0.476,731.9,01.19,0.508
2015-08-13 02:31:00,1514E-3,5C000000,-0724,0821,12400,026.5,045.4,0.477,732.0,01.19,0.508
2015-08-13 02:32:00,1658E-3,5C000000,-0724,0820,12322,026.5,045.4,0.477,731.9,01.19,0.508
2015-08-13 02:33:00,1731E-3,5C000000,-0724,0820,12284,026.5,045.4,0.477,731.9,01.19,0.508
2015-08-13 02:34:00,1636E-3,5C000000,-0724,0821,12314,026.5,045.4,0.476,732.0,01.19,0.508
2015-08-13 02:35:00,1556E-3,5C000000,-0724,0821,12318,026.5,045.4,0.477,732.0,01.19,0.508
2015-08-13 02:36:00,1712E-3,5C000000,-0724,0820,12213,026.5,045.4,0.477,731.9,01.19,0.508
2015-08-13 02:37:00,1741E-3,5C000000,-0724,0821,12274,026.5,045.4,0.477,732.0,01.19,0.508
2015-08-13 02:38:00,1519E-3,5C000000,-0724,0821,12171,026.5,045.4,0.477,732.0,01.19,0.508
2015-08-13 02:39:00,1614E-3,5C000000,-0724,0821,12398,026.5,045.4,0.477,732.0,01.19,0.508
2015-08-13 02:40:00,1633E-3,5C000000,-0724,0821,12361,026.6,045.4,0.477,732.0,01.19,0.508
2015-08-13 02:41:00,1780E-3,5C000000,-0724,0821,12185,026.6,045.4,0.476,732.0,01.19,0.508
2015-08-13 02:42:00,1604E-3,5C000000,-0724,0821,12310,026.6,045.4,0.477,732.0,01.19,0.508
2015-08-13 02:43:00,1656E-3,5C000000,-0724,0822,12163,026.6,045.4,0.476,732.0,01.19,0.508
2015-08-13 02:44:00,1708E-3,5C000000,-0724,0820,12221,026.6,045.4,0.477,732.0,01.19,0.508
2015-08-13 02:45:00,1593E-3,5C000000,-0724,0821,12205,026.6,045.4,0.476,732.0,01.19,0.508
2015-08-13 02:46:00,1755E-3,5C000000,-0724,0822,12185,026.6,045.4,0.477,732.0,01.19,0.508
2015-08-13 02:47:00,1577E-3,5C000000,-0724,0821,12245,026.6,045.4,0.476,732.0,01.19,0.508
2015-08-13 02:48:00,1622E-3,5C000000,-0724,0821,12267,026.6,045.4,0.477,732.0,01.19,0.508
2015-08-13 02:49:00,1650E-3,5C000000,-0724,0820,12355,026.6,045.4,0.476,732.0,01.19,0.508
2015-08-13 02:50:00,1628E-3,5C000000,-0724,0821,12448,026.6,045.4,0.477,732.0,01.19,0.508
2015-08-13 02:51:00,1553E-3,5C000000,-0724,0821,12226,026.6,045.4,0.476,732.0,01.19,0.508
2015-08-13 02:52:00,1756E-3,5C000000,-0724,0821,12259,026.6,045.4,0.477,732.0,01.19,0.508
2015-08-13 02:53:00,1596E-3,5C000000,-0724,0821,12314,026.6,045.4,0.477,732.0,01.19,0.508
2015-08-13 02:54:00,1461E-3,5C000000,-0724,0820,12148,026.6,045.4,0.477,732.0,01.19,0.508
2015-08-13 02:55:00,1646E-3,5C000000,-0724,0821,12206,026.6,045.4,0.477,732.0,01.19,0.508
2015-08-13 02:56:00,1584E-3,5C000000,-0724,0821,12273,026.6,045.4,0.476,732.0,01.19,0.508
2015-08-13 02:57:00,1677E-3,5C000000,-0724,0820,12235,026.6,045.4,0.477,732.0,01.19,0.508
2015-08-13 02:58:00,1454E-3,5C000000,-0724,0820,12432,026.6,045.4,0.476,732.0,01.19,0.508
2015-08-13 02:59:00,1732E-3,5C000000,-0724,0821,12373,026.6,045.4,0.477,732.0,01.19,0.508
2015-08-13 03:00:00,1624E-3,5C000000,-0724,0821,12175,026.7,045.4,0.476,732.0,01.19,0.508
2015-08-13 03:01:00,1603E-3,5C000000,-0724,0820,12116,026.6,045.4,0.477,732.0,01.19,0.508
2015-08-13 03:02:00,1623E-3,5C000000,-0724,0821,12382,026.7,045.4,0.476,732.1,01.19,0.508
2015-08-13 03:03:00,1688E-3,5C000000,-0724,0821,12133,026.7,045.4,0.477,732.0,01.19,0.508
2015-08-13 03:04:00,1568E-3,5C000000,-0724,0822,12377,026.7,045.4,0.476,732.0,01.19,0.508
2015-08-13 03:05:00,1546E-3,5C000000,-0724,0820,12222,026.7,045.4,0.477,732.1,01.19,0.508
2015-08-13 03:06:00,1653E-3,5C000000,-0724,0820,12350,026.7,045.4,0.477,732.1,01.19,0.508
2015-08-13 03:07:00,1730E-3,5C000000,-0724,0820,12276,026.7,045.4,0.477,732.1,01.19,0.508
2015-08-13 03:08:00,1618E-3,5C000000,-0724,0820,12501,026.7,045.4,0.477,732.1,01.19,0.508
2015-08-13 03:09:00,1626E-3,5C000000,-0724,0821,12191,026.7,045.4,0.476,732.1,01.19,0.508
2015-08-13 03:10:00,1520E-3,5C000000,-0724,0821,12208,026.7,045.4,0.477,732.1,01.19,0.508
2015-08-13 03:11:00,1630E-3,5C000000,-0724,0821,12345,026.7,045.4,0.476,732.1,01.19,0.508
2015-08-13 03:12:00,1690E-3,5C000000,-0724,0821,12352,026.7,045.4,0.477,732.1,01.19,0.508
2015-08-13 03:13:00,1606E-3,5C000000,-0724,0820,12293,026.7,045.4,0.476,732.1,01.19,0.508
2015-08-13 03:14:00,1625E-3,5C000000,-0724,0821,12273,026.7,045.4,0.477,732.1,01.19,0.508
2015-08-13 03:15:00,1533E-3,5C000000,-0724,0820,12188,026.7,045.4,0.476,732.1,01.19,0.508
2015-08-13 03:16:00,1759E-3,5C000000,-0724,0819,12199,026.7,045.4,0.477,732.1,01.19,0.508
2015-08-13 03:17:00,1486E-3,5C000000,-0724,0820,12386,026.7,045.4,0.477,732.1,01.19,0.508
2015-08-13 03:18:00,1796E-3,5C000000,-0724,0821,12299,026.7,045.4,0.477,732.1,01.19,0.508
2015-08-13 03:19:00,1573E-3,5C000000,-0724,0820,12303,026.7,045.4,0.477,732.1,01.19,0.508
2015-08-13 03:20:00,1725E-3,5C000000,-0724,0820,12319,026.7,045.4,0.477,732.1,01.19,0.508
2015-08-13 03:21:00,1466E-3,5C000000,-0724,0820,12283,026.7,045.4,0.477,732.1,01.19,0.508
2015-08-13 03:22:00,1792E-3,5C000000,-0724,0821,12300,026.7,045.4,0.476,732.0,01.19,0.508
2015-08-13 03:23:00,1637E-3,5C000000,-0724,0820,12122,026.7,045.4,0.477,732.1,01.19,0.508
2015-08-13 03:24:00,1631E-3,5C000000,-0724,0820,12266,026.7,045.4,0.476,732.1,01.19,0.508
2015-08-13 03:25:00,1685E-3,5C000000,-0724,0821,12252,026.7,045.4,0.477,732.1,01.19,0.508
2015-08-13 03:26:00,1600E-3,5C000000,-0724,0821,12396,026.7,045.4,0.476,732.1,01.19,0.508
2015-08-13 03:27:00,1544E-3,5C000000,-0724,0821,12344,026.7,045.4,0.477,732.1,01.19,0.508
2015-08-13 03:28:00,1528E-3,5C000000,-0724,0820,12306,026.7,045.4,0.476,732.1,01.19,0.508
2015-08-13 03:29:00,1589E-3,5C000000,-0724,0821,12391,026.7,045.4,0.477,732.1,01.19,0.508
2015-08-13 03:30:00,1679E-3,5C000000,-0724,0820,12114,026.7,045.4,0.476,732.1,01.19,0.508
2015-08-13 03:31:00,1708E-3,5C000000,-0724,0820,12164,026.7,045.4,0.477,732.1,01.19,0.508
2015-08-13 03:32:00,1806E-3,5C000000,-0724,0821,12269,026.7,045.4,0.477,732.1,01.19,0.508
2015-08-13 03:33:00,1540E-3,5C000000,-0724,0822,12307,026.7,045.4,0.477,732.1,01.19,0.508
2015-08-13 03:34:00,1625E-3,5C000000,-0724,0821,12241,026.7,045.4,0.477,732.1,01.19,0.508
2015-08-13 03:35:00,1664E-3,5C000000,-0724,0821,12157,026.7,045.4,0.476,732.1,01.19,0.508
2015-08-13 03:36:00,1651E-3,5C000000,-0724,0821,12398,026.8,045.4,0.477,732.1,01.19,0.508
2015-08-13 03:37:00,1549E-3,5C000000,-0724,0821,12260,026.8,045.4,0.476,732.1,01.19,0.508
2015-08-13 03:38:00,1629E-3,5C000000,-0724,0821,12300,026.8,045.4,0.477,732.1,01.19,0.508
2015-08-13 03:39:00,1567E-3,5C000000,-0724,0820,12270,026.7,045.4,0.476,732.1,01.19,0.508
2015-08-13 03:40:00,1699E-3,5C000000,-0724,0820,12215,026.7,045.4,0.477,732.1,01.19,0.508
2015-08-13 03:41:00,1593E-3,5C000000,-0724,0821,12410,026.7,045.4,0.476,732.1,01.19,0.508
2015-08-13 03:42:00,1616E-3,5C000000,-0724,0820,12271,026.7,045.4,0.477,732.1,01.19,0.508
2015-08-13 03:43:00,1626E-3,5C000000,-0724,0821,12210,026.7,045.4,0.476,732.1,01.19,0.508
2015-08-13 03:44:00,1718E-3,5C000000,-0724,0820,12236,026.8,045.4,0.477,732.1,01.19,0.508
2015-08-13 03:45:00,1743E-3,5C000000,-0724,0821,12320,026.8,045.4,0.476,732.1,01.19,0.508
2015-08-13 03:46:00,1707E-3,5C000000,-0724,0821,12368,026.8,045.4,0.476,732.1,01.19,0.508
2015-08-13 03:47:00,1648E-3,5C000000,-0724,0820,12267,026.7,045.4,0.477,732.1,01.19,0.508
2015-08-13 03:48:00,1591E-3,5C000000,-0724,0821,12225,026.8,045.4,0.476,732.1,01.19,0.508
2015-08-13 03:49:00,1759E-3,5C000000,-0724,0820,12251,026.8,045.4,0.477,732.1,01.19,0.508
2015-08-13 03:50:00,1601E-3,5C000000,-0724,0820,12290,026.8,045.4,0.476,732.1,01.19,0.508
2015-08-13 03:51:00,1688E-3,5C000000,-0724,0821,12228,026.8,045.4,0.477,732.2,01.19,0.508
2015-08-13 03:52:00,1619E-3,5C000000,-0724,0821,12230,026.8,045.4,0.476,732.2,01.19,0.508
2015-08-13 03:53:00,1741E-3,5C000000,-0724,0821,12321,026.8,045.4,0.477,732.1,01.19,0.508
2015-08-13 03:54:00,1549E-3,5C000000,-0724,0821,12252,026.8,045.4,0.476,732.1,01.19,0.508
2015-08-13 03:55:00,1739E-3,5C000000,-0724,0821,12288,026.8,045.4,0.477,732.1,01.19,0.508
2015-08-13 03:56:00,1542E-3,5C000000,-0724,0821,12322,026.8,045.4,0.476,732.1,01.19,0.508
2015-08-13 03:57:00,1643E-3,5C000000,-0724,0821,12290,026.8,045.4,0.477,732.1,01.19,0.508
2015-08-13 03:58:00,1617E-3,5C000000,-0724,0820,12267,026.8,045.4,0.477,732.1,01.19,0.508
2015-08-13 03:59:00,1589E-3,5C000000,-0724,0821,12383,026.8,045.4,0.476,732.1,01.19,0.508
2015-08-13 04:00:00,1621E-3,5C000000,-0724,0820,12255,026.8,045.5,0.477,732.1,01.19,0.508
2015-08-13 04:01:00,1629E-3,5C000000,-0724,0821,12165,026.8,045.4,0.476,732.1,01.19,0.508
2015-08-13 04:02:00,1533E-3,5C000000,-0724,0821,12177,026.8,045.4,0.477,732.0,01.19,0.508
2015-08-13 04:03:00,1464E-3,5C000000,-0724,0821,12340,026.8,045.4,0.476,732.0,01.19,0.508
2015-08-13 04:04:00,1641E-3,5C000000,-0724,0821,12333,026.8,045.4,0.477,732.1,01.19,0.508
2015-08-13 04:05:00,1698E-3,5C000000,-0724,0821,12333,026.8,045.4,0.476,732.1,01.19,0.508
2015-08-13 04:06:00,1589E-3,5C000000,-0724,0821,12222,026.8,045.4,0.477,732.1,01.19,0.508
2015-08-13 04:07:00,1562E-3,5C000000,-0724,0820,12344,026.8,045.4,0.476,732.1,01.19,0.508
2015-08-13 04:08:00,1690E-3,5C000000,-0724,0821,12306,026.8,045.4,0.477,732.1,01.19,0.508
2015-08-13 04:09:00,1645E-3,5C000000,-0724,0820,12221,026.8,045.4,0.476,732.1,01.19,0.508
2015-08-13 04:10:00,1646E-3,5C000000,-0724,0821,12159,026.8,045.4,0.476,732.1,01.19,0.508
2015-08-13 04:11:00,1634E-3,5C000000,-0724,0821,12393,026.8,045.4,0.476,732.1,01.19,0.508
2015-08-13 04:12:00,1521E-3,5C000000,-0724,0820,12285,026.8,045.4,0.476,732.1,01.19,0.508
2015-08-13 04:13:00,1653E-3,5C000000,-0724,0821,12362,026.8,045.4,0.477,732.1,01.19,0.508
2015-08-13 04:14:00,1626E-3,5C000000,-0724,0821,12295,026.8,045.4,0.476,732.1,01.19,0.508
2015-08-13 04:15:00,1541E-3,5C000000,-0724,0821,12353,026.8,045.4,0.477,732.1,01.19,0.508
2015-08-13 04:16:00,1694E-3,5C000000,-0724,0821,12289,026.8,045.4,0.476,732.1,01.19,0.508
2015-08-13 04:17:00,1619E-3,5C000000,-0724,0821,12211,026.8,045.4,0.477,732.1,01.19,0.508
2015-08-13 04:18:00,1671E-3,5C000000,-0724,0820,12207,026.8,045.4,0.476,732.1,01.19,0.508
2015-08-13 04:19:00,1673E-3,5C000000,-0724,0821,12196,026.9,045.4,0.477,732.1,01.19,0.508
2015-08-13 04:20:00,1621E-3,5C000000,-0724,0820,12176,026.8,045.4,0.476,732.2,01.19,0.508